Weather History for KTIW - September, 2013

Change the Weather History Date:

Friday, September 6, 2013

  Actual Average Record
Temperature  
Mean Temperature 63 °F -  
Max Temperature 66 °F 69 °F 86 °F (2014)
Min Temperature 60 °F 52 °F 48 °F (2002)
Degree Days  
Heating Degree Days 2    
Growing Degree Days 13 (Base 50)    
Moisture  
Dew Point 58 °F    
Average Humidity 88    
Maximum Humidity 96    
Minimum Humidity 80    
Precipitation  
Precipitation 0.00 in - - ()
Sea Level Pressure  
Sea Level Pressure 30.03 in    
Wind  
Wind Speed 5 mph (South)    
Max Wind Speed 12 mph    
Max Gust Speed -    
Visibility 6 miles    
Events Fog , Rain    
Averages and records for this station are not official NWS values.
T = Trace of Precipitation, MM = Missing Value Source: NWS Daily Summary

Daily Weather History Graph

Daily Weather History Graph

Search for Another Location

Airport or City:

Trip Planner

Search our weather history database for the weather conditions in past years. The results will help you decide how hot, cold, wet, or windy it might be!

Date:

Astronomy

Sep. 06, 2013 Rise Set
Actual Time 6:36 AM PDT 7:39 PM PDT
Civil Twilight 6:05 AM PDT 8:10 PM PDT
Nautical Twilight 5:27 AM PDT 8:48 PM PDT
Astronomical Twilight 4:47 AM PDT 9:27 PM PDT
Moon 8:03 AM PDT (9/6) 7:56 PM PDT (9/6)
Length of Visible Light 14h 05m
Length of Day
13h 03m
New Moon, 2% of the Moon is Illuminated
Sep 6
New Moon
Sep 12
First Quarter
Sep 19
Full
Sep 26
Last Quarter
Oct 4
New

Hourly Weather History & Observations

Time (PDT) Temp. Dew Point Humidity Pressure Visibility Wind Dir Wind Speed Gust Speed Precip Events Conditions
12:14 AM 62.6 °F 57.2 °F 82% 29.98 in 7.0 mi South 11.5 mph - N/A Rain Rain
12:30 AM 60.8 °F 57.2 °F 88% 29.99 in 6.0 mi South 8.1 mph - N/A Rain Rain
12:53 AM 61.0 °F 57.9 °F 90% 29.99 in 5.0 mi SSW 4.6 mph - N/A Rain Rain
1:23 AM 60.8 °F 57.2 °F 88% 29.99 in 4.0 mi South 4.6 mph - N/A Rain Rain
1:36 AM 60.8 °F 57.2 °F 88% 29.97 in 4.0 mi SSE 5.8 mph - N/A Rain Rain
1:42 AM 60.8 °F 57.2 °F 88% 29.97 in 4.0 mi SSE 4.6 mph - N/A Rain Rain
1:53 AM 60.1 °F 59.0 °F 96% 29.98 in 4.0 mi Calm Calm - N/A Rain Rain
2:10 AM 60.8 °F 57.2 °F 88% 29.99 in 2.5 mi North 3.5 mph - N/A Rain Heavy Rain
2:25 AM 60.8 °F 57.2 °F 88% 29.98 in 3.0 mi SSE 4.6 mph - N/A Rain Rain
2:32 AM 60.8 °F 57.2 °F 88% 29.98 in 4.0 mi Calm Calm - N/A Rain Rain
2:51 AM 60.8 °F 57.2 °F 88% 29.97 in 4.0 mi SSE 3.5 mph - N/A Rain Rain
2:53 AM 60.1 °F 57.9 °F 93% 29.96 in 4.0 mi SE 3.5 mph - N/A Rain Rain
3:17 AM 60.8 °F 57.2 °F 88% 29.96 in 9.0 mi SSE 4.6 mph - N/A Rain Light Rain
3:29 AM 60.8 °F 57.2 °F 88% 29.97 in 9.0 mi South 5.8 mph - N/A Rain Light Rain
3:42 AM 60.8 °F 57.2 °F 88% 29.97 in 10.0 mi SSE 3.5 mph - N/A Rain Light Rain
3:48 AM 60.8 °F 57.2 °F 88% 29.97 in 10.0 mi SSE 3.5 mph - N/A Rain Light Rain
3:53 AM 60.1 °F 57.9 °F 93% 29.96 in 10.0 mi SSE 3.5 mph - N/A Rain Light Rain
4:02 AM 60.8 °F 57.2 °F 88% 29.96 in 10.0 mi SSE 3.5 mph - N/A Rain Light Rain
4:53 AM 61.0 °F 57.9 °F 90% 29.96 in 7.0 mi South 4.6 mph - N/A Rain Light Rain
5:31 AM 60.8 °F 57.2 °F 88% 29.97 in 8.0 mi South 4.6 mph - N/A Rain Light Rain
5:53 AM 60.1 °F 57.9 °F 93% 29.97 in 9.0 mi South 4.6 mph - N/A Rain Light Rain
6:31 AM 60.8 °F 57.2 °F 88% 29.98 in 10.0 mi South 4.6 mph - N/A Rain Light Rain
6:53 AM 60.1 °F 57.9 °F 93% 29.98 in 10.0 mi South 4.6 mph - N/A Rain Light Rain
7:53 AM 61.0 °F 59.0 °F 93% 29.99 in 1.5 mi Calm Calm - 0.00 in   Overcast
7:54 AM 61.0 °F 59.0 °F 93% 29.99 in 1.5 mi Calm Calm - 0.00 in   Overcast
8:53 AM 61.0 °F 59.0 °F 93% 30.01 in 1.0 mi Calm Calm - N/A   Overcast
9:00 AM 60.8 °F 59.0 °F 94% 30.02 in 7.0 mi Calm Calm - N/A   Overcast
9:10 AM 60.8 °F 59.0 °F 94% 30.02 in 1.0 mi Calm Calm - N/A   Overcast
9:53 AM 62.1 °F 59.0 °F 90% 30.04 in 1.0 mi WSW 3.5 mph - 0.00 in Rain Light Rain
10:04 AM 60.8 °F 59.0 °F 94% 30.04 in 0.5 mi West 3.5 mph - 0.00 in Fog , Rain Light Rain
10:53 AM 62.1 °F 60.1 °F 93% 30.04 in 0.5 mi Calm Calm - 0.00 in Fog , Rain Light Rain
11:49 AM 62.6 °F 60.8 °F 94% 30.06 in 1.0 mi Calm Calm - 0.00 in Rain Light Rain
11:53 AM 62.1 °F 60.1 °F 93% 30.06 in 1.0 mi Calm Calm - 0.00 in   Overcast
12:53 PM 64.0 °F 61.0 °F 90% 30.05 in 1.5 mi SW 3.5 mph - N/A   Overcast
1:20 PM 64.4 °F 60.8 °F 88% 30.06 in 2.5 mi SW 4.6 mph - N/A   Overcast
1:38 PM 64.4 °F 60.8 °F 88% 30.06 in 2.5 mi SW 4.6 mph - N/A   Overcast
1:39 PM 64.4 °F 60.8 °F 88% 30.06 in 3.0 mi SW 3.5 mph - N/A   Overcast
1:53 PM 66.0 °F 61.0 °F 84% 30.05 in 3.0 mi Variable 4.6 mph - N/A   Haze
2:53 PM 66.0 °F 60.1 °F 81% 30.07 in 6.0 mi Calm Calm - N/A   Haze
3:53 PM 66.0 °F 60.1 °F 81% 30.07 in 10.0 mi South 6.9 mph - N/A   Overcast
4:53 PM 64.9 °F 60.1 °F 84% 30.09 in 10.0 mi SSW 5.8 mph - N/A   Overcast
5:53 PM 64.0 °F 57.9 °F 80% 30.09 in 10.0 mi Calm Calm - N/A   Overcast
6:53 PM 64.9 °F 59.0 °F 81% 30.09 in 10.0 mi SSW 5.8 mph - N/A   Mostly Cloudy
7:53 PM 63.0 °F 59.0 °F 87% 30.09 in 10.0 mi Calm Calm - N/A   Clear
8:24 PM 62.6 °F 59.0 °F 88% 30.10 in 10.0 mi Calm Calm - N/A   Mostly Cloudy
8:53 PM 62.1 °F 57.9 °F 86% 30.11 in 10.0 mi South 3.5 mph - N/A   Overcast
9:51 PM 62.6 °F 57.2 °F 82% 30.11 in 10.0 mi South 4.6 mph - N/A   Mostly Cloudy
9:53 PM 62.1 °F 57.9 °F 86% 30.11 in 10.0 mi South 4.6 mph - N/A   Mostly Cloudy
10:12 PM 62.6 °F 57.2 °F 82% 30.11 in 10.0 mi South 4.6 mph - N/A   Overcast
10:53 PM 63.0 °F 57.9 °F 84% 30.12 in 10.0 mi South 4.6 mph - N/A   Overcast
11:13 PM 62.6 °F 57.2 °F 82% 30.12 in 10.0 mi South 4.6 mph - N/A   Overcast
11:25 PM 62.6 °F 57.2 °F 82% 30.12 in 10.0 mi South 4.6 mph - N/A   Overcast
11:53 PM 63.0 °F 57.9 °F 84% 30.12 in 10.0 mi South 4.6 mph - N/A   Overcast